STARLINK-32650, 62231

Orbit data source: Space-Track

STARLINK-32650, 62231 is a payload satellite owned by SpaceX/Seattle (US) in LEO that was launched on Thu, 05 Dec 2024 UTC via an FALCON 9 launch vehicle from the Air Force Western Test Range (AFWTR). Payload-class satellites include a variety of spacecraft equipped with specific instruments for various scientific and technological missions. These include communications satellites like Starlink; space stations such as the ISS; scientific satellites like the Hubble; Earth observation satellites from companies like Planet Labs, Umbra, and HawkEye 360; GPS; miniature CubeSats for education and research; and military/defense satellites.

Loading next visibility...
Identifier
62231, 2024-231P
Orbit
LEO
Country
Flag of USUS
Related business
Manufacturer
SpaceX/Seattle
Mission
Operational Commercial Communications
Bus & Motor
STARLINK V2M, Unknown motor
Mass
730 kg wet, ~700 kg dry
Launch date (UTC)
2024-12-05 (9 months ago)
Launch vehicle
FALCON 9
Launch site
Air Force Western Test Range (AFWTR)
Object type
Payload
Rocket body
Debris
Shape & HBR
Box + 2 Pan, 14.5 m
Radar Cross Section
33.884 m², Large (>1 m²)

Expand to show TLE details & history
Last TLE update: 23 hours ago

TLE from 23 hours ago
0 STARLINK-32650
1 62231U 24231P   25257.45616420  .00016364  00000-0  56313-3 0  9996
2 62231  53.1576 318.4033 0001171  89.6147 270.4988 15.30216387 44787
Epoch: 2025-09-14T10:56Z
TLE epoch observation values (Epoch: 2025-09-14T10:56:52.586Z)
Latitude
-0.00004°
Longitude
160.50925°
Altitude
476.059 km
Speed
7.629 km/s
True Right ascension
21h 13m 36s
True Declination
0° 00' 00"
Sunlit
Object was in full shadow at epoch
Visualization orbit readout
Latitude
Unknown
Longitude
Unknown
Altitude
Unknown
Speed
Unknown
Apparent Right ascension
Unknown
Apparent Declination
Unknown
Sunlit
N/A
Visualization observer readout
Local Sidereal Time
02:17:13
Azimuth
Unknown
Elevation
Unknown
Doppler factor
Unknown
Orbital elements
Apogee altitude
476.226 km
Perigee altitude
474.62 km
Semi-major axis
6,853.56 km
Eccentricity
0.00012
Inclination
53.1576°
RAAN
318.4033°
Arg. of periapsis
89.6147°
True anomaly
270.48538°
Mean anomaly
270.4988°
Eccentric anomaly
270.49209°
Mean motion
3.82533 °/min
Orbital period
94.11 mins
BSTAR
0.00056313
Loading maneuver chart data...
Computing Atmospheric mass density...
Loading historical data...
Loading historical data...
Loading historical data...
Loading historical data...
Loading historical data...
Loading historical data...
Loading historical data...

Documentation

Showing up to 5 results
|